FW2489 Weather Reports


Display with metric or nautical units.
time (UTC)temp
F
wind
direction
speed
MPH
gust
MPH
rain 1hr
in
rain 24hr
in
rain mn
in
humidity
%
barometer
mb
20260503203005 62 236 13.0 28.0 0.00 0.00 0.00 61 1011.9
20260503202004 62 254 20.0 30.0 0.00 0.00 0.00 66 1011.9
20260503201900 62 210 19.0 35.0 0.00 0.00 0.00 68 1013.1
20260503201004 62 234 18.0 35.0 0.00 0.00 0.00 67 1012.2
20260503200238 62 262 16.0 35.0 0.00 0.00 0.00 67 1013.1
20260503200003 62 273 13.0 33.0 0.00 0.00 0.00 65 1011.9
20260503195001 62 248 22.0 30.0 0.00 0.00 0.00 69 1011.9
20260503194005 62 239 24.0 35.0 0.00 0.00 0.00 69 1012.2
20260503193441 61 254 19.0 28.0 0.00 0.00 0.00 67 1012.6
20260503192446 61 285 15.0 25.0 0.00 0.00 0.00 65 1012.2
20260503191818 61 314 17.0 25.0 0.00 0.00 0.00 67 1013.4
20260503191002 61 254 14.0 23.0 0.00 0.00 0.00 66 1012.6
20260503190005 61 282 12.0 20.0 0.00 0.00 0.00 66 1012.2
20260503185003 61 289 10.0 20.0 0.00 0.00 0.00 67 1012.6
20260503184807 60 271 16.0 23.0 0.00 0.00 0.00 65 1013.8
20260503184004 60 270 9.0 23.0 0.00 0.00 0.00 65 1012.6
20260503183006 61 286 11.0 23.0 0.00 0.00 0.00 67 1012.6
20260503182004 61 265 9.0 17.0 0.00 0.00 0.00 66 1012.6
20260503181814 60 249 10.0 25.0 0.00 0.00 0.00 64 1013.8
20260503181005 61 266 13.0 25.0 0.00 0.00 0.00 65 1012.6
20260503180249 60 42 1.0 10.0 0.00 0.00 0.00 66 1013.8
20260503180003 61 282 7.0 17.0 0.00 0.00 0.00 64 1012.6
20260503175004 60 268 10.0 13.0 0.00 0.00 0.00 64 1012.6
20260503174003 60 291 6.0 10.0 0.00 0.00 0.00 66 1012.6
20260503173447 59 14 0.0 8.0 0.00 0.00 0.00 69 1012.6
20260503172003 59 75 6.0 8.0 0.00 0.00 0.00 73 1012.6
20260503171759 59 76 5.0 13.0 0.00 0.00 0.00 73 1013.8
20260503171003 58 16 0.0 8.0 0.00 0.00 0.00 73 1012.2
20260503170444 58 221 4.0 13.0 0.00 0.00 0.00 76 1012.2
20260503150948 55 301 5.0 10.0 0.00 0.00 0.00 83 1011.6
20260503130931 54 261 6.0 15.0 0.00 0.00 0.00 87 1010.2
20260503081603 55 2 0.0 5.0 0.00 0.00 0.00 83 1011.4
20260503080904 55 16 0.0 5.0 0.00 0.00 0.00 83 1010.5
20260503080340 55 327 2.0 5.0 0.00 0.00 0.00 84 1010.5
20260503072901 56 334 2.0 5.0 0.00 0.00 0.00 86 1010.5
20260503072344 56 339 2.0 8.0 0.00 0.00 0.00 86 1010.5
20260503071630 56 120 2.0 8.0 0.00 0.00 0.00 86 1011.7
20260503070900 56 146 3.0 5.0 0.00 0.00 0.00 86 1010.5
20260503054901 55 328 4.0 13.0 0.00 0.00 0.00 89 1010.2
20260503054539 55 279 8.0 20.0 0.00 0.00 0.00 89 1011.1
20260503053904 55 332 6.0 15.0 0.00 0.00 0.00 89 1009.9
20260503053354 55 313 11.0 20.0 0.00 0.00 0.00 89 1009.9
20260503051903 55 283 15.0 17.0 0.00 0.00 0.00 88 1009.9
20260503051532 55 326 7.0 17.0 0.00 0.00 0.00 88 1011.1
20260503051343 55 325 6.0 17.0 0.00 0.00 0.00 88 1009.9
20260503045902 55 298 10.0 15.0 0.00 0.00 0.00 88 1009.9
20260503044902 55 271 11.0 15.0 0.00 0.00 0.00 87 1009.9
20260503044534 56 327 5.0 15.0 0.00 0.00 0.00 87 1011.4
20260503043901 56 309 5.0 13.0 0.00 0.00 0.00 86 1009.9
20260503042904 56 253 5.0 15.0 0.00 0.00 0.00 86 1009.9
20260503042337 56 2 2.0 13.0 0.00 0.00 0.00 87 1009.9
20260503041523 56 322 8.0 15.0 0.00 0.00 0.00 86 1011.1
20260503040902 56 335 9.0 15.0 0.00 0.00 0.00 86 1009.9
20260503035901 56 311 8.0 13.0 0.00 0.00 0.00 84 1009.9
20260503034902 56 353 2.0 13.0 0.00 0.00 0.00 84 1009.9
20260503034522 56 320 5.0 15.0 0.00 0.00 0.00 84 1011.1
20260503033902 56 311 7.0 10.0 0.00 0.00 0.00 84 1009.9
20260503032903 56 300 5.0 15.0 0.00 0.00 0.00 84 1009.9
20260503031902 56 317 9.0 15.0 0.00 0.00 0.00 84 1009.9
20260503031521 56 13 3.0 17.0 0.00 0.00 0.00 85 1010.7
20260503030902 56 302 11.0 17.0 0.00 0.00 0.00 84 1009.5
20260503025903 56 288 9.0 17.0 0.00 0.00 0.00 84 1009.5
20260503024524 56 295 6.0 20.0 0.00 0.00 0.00 84 1010.7
20260503023904 56 300 12.0 17.0 0.00 0.00 0.00 84 1009.2
20260503022901 57 299 14.0 17.0 0.00 0.00 0.00 83 1009.2
20260503021903 57 247 9.0 17.0 0.00 0.00 0.00 82 1009.2
20260503021520 57 236 10.0 23.0 0.00 0.00 0.00 82 1010.7
20260503020905 58 285 9.0 20.0 0.00 0.00 0.00 81 1009.2
20260503020342 58 349 9.0 23.0 0.00 0.00 0.00 81 1009.5
20260503015343 58 278 16.0 20.0 0.00 0.00 0.00 80 1009.5
20260503014454 58 307 7.0 23.0 0.00 0.00 0.00 81 1010.7
20260503014342 58 289 6.0 23.0 0.00 0.00 0.00 80 1009.2
20260503012902 58 258 9.0 23.0 0.00 0.00 0.00 79 1009.5
20260503011902 59 274 15.0 23.0 0.00 0.00 0.00 78 1009.5
20260503011448 59 303 6.0 25.0 0.00 0.00 0.00 78 1010.7
20260503010904 59 276 13.0 25.0 0.00 0.00 0.00 77 1009.5
20260503005904 60 283 15.0 25.0 0.00 0.00 0.00 74 1009.5
20260503004900 60 298 9.0 20.0 0.00 0.00 0.00 75 1009.5
20260503004437 60 313 11.0 23.0 0.00 0.00 0.00 75 1011.1
20260503003901 60 280 11.0 23.0 0.00 0.00 0.00 76 1009.5
20260503002901 60 241 10.0 23.0 0.00 0.00 0.00 75 1009.5
20260503001906 60 280 13.0 23.0 0.00 0.00 0.00 74 1009.5
20260503001444 60 248 12.0 25.0 0.00 0.00 0.00 74 1011.1
20260503000903 60 268 11.0 25.0 0.00 0.00 0.00 74 1009.9
20260502235901 61 267 12.0 23.0 0.00 0.00 0.00 73 1009.9
20260502234905 61 281 19.0 23.0 0.00 0.00 0.00 73 1009.5
20260502234435 61 280 16.0 25.0 0.00 0.00 0.00 72 1011.1
20260502233900 61 259 15.0 25.0 0.00 0.00 0.00 73 1009.9
20260502232902 61 296 12.0 23.0 0.00 0.00 0.00 71 1009.9
20260502232834 60 262 13.0 28.0 0.00 0.00 0.00 72 1011.4
20260502231905 60 236 15.0 23.0 0.00 0.00 0.00 75 1009.9
20260502230904 61 308 16.0 28.0 0.00 0.00 0.00 74 1010.2
20260502225902 60 262 14.0 25.0 0.00 0.00 0.00 75 1010.2
20260502224422 60 253 16.0 28.0 0.00 0.00 0.00 74 1011.7
20260502223905 59 236 16.0 28.0 0.00 0.00 0.00 76 1010.5
20260502222901 59 282 23.0 28.0 0.00 0.00 0.00 74 1010.5
20260502222334 60 272 10.0 25.0 0.00 0.00 0.00 77 1010.9
20260502221430 60 285 15.0 25.0 0.00 0.00 0.00 76 1011.7
20260502220852 60 291 19.0 23.0 0.00 0.00 0.00 75 1010.9
20260502220330 60 253 10.0 20.0 0.00 0.00 0.00 76 1010.9
20260502214851 60 254 9.0 0.0 0.00 0.00 0.00 77 1011.2
20260502214420 60 291 17.0 25.0 0.00 0.00 0.00 77 1012.4
20260502214231 60 229 9.0 23.0 0.00 0.00 0.00 77 1011.2
20260502213703 60 270 14.0 25.0 0.00 0.00 0.00 75 1011.6
20260502212229 60 235 17.0 23.0 0.00 0.00 0.00 74 1011.6
20260502211716 60 270 15.0 28.0 0.00 0.00 0.00 75 1011.6
20260502211408 60 264 14.0 28.0 0.00 0.00 0.00 73 1012.8
20260502210712 60 278 12.0 23.0 0.00 0.00 0.00 73 1011.6
20260502205229 61 18 6.0 23.0 0.00 0.00 0.00 70 1011.9
20260502204408 61 297 9.0 20.0 0.00 0.00 0.00 70 1012.8
20260502204235 61 286 14.0 20.0 0.00 0.00 0.00 69 1011.6